DLH41D KLAX-EDDF

Flight info

Callsign DLH41D
Flight time N/A
Altitude 35000
Route OSHNN1 BEALE DCT BAWER Q114 ZAKRY DCT SNY DCT KP87E/N0501F370 DCT KP03G DCT 4830N09000W DCT VIRSO DCT 57N070W DCT LAKES/M083F370 DCT URTAK DCT 59N050W/M085F390 5930N04000W 5930N03000W 59N020W DCT GOMUP/N0487F390 DCT GINGA DCT GODOS DCT SOGPO DCT DIXAT DIXAT1A
Aircraft A388/J-SADE2E3FGHIJ3J4J5M1RWXY/LB1D1

Departure

Time N/A
Airport Los Angeles International Airport (KLAX)

Arrival

Time 2026-04-19 06:45
Airport Frankfurt Main Airport (EDDF)
Time Latitude Longitude Altitude Speed Heading
2026-04-19 06:11 51.03418 7.35791 34376 ft 348 kts 183°
2026-04-19 06:11 51.01032 7.36292 34074 ft 352 kts 172°
2026-04-19 06:12 50.96421 7.39013 33456 ft 353 kts 161°
2026-04-19 06:12 50.94209 7.40708 33149 ft 351 kts 159°
2026-04-19 06:12 50.92041 7.42428 32856 ft 348 kts 159°
2026-04-19 06:12 50.89893 7.44137 32578 ft 345 kts 159°
2026-04-19 06:13 50.87768 7.45816 32291 ft 341 kts 159°
2026-04-19 06:13 50.85677 7.47457 31981 ft 338 kts 159°
2026-04-19 06:13 50.83549 7.49121 31692 ft 335 kts 159°
2026-04-19 06:13 50.81476 7.50738 31425 ft 332 kts 159°
2026-04-19 06:14 50.79403 7.52352 31143 ft 329 kts 159°
2026-04-19 06:14 50.77353 7.53946 30867 ft 327 kts 159°
2026-04-19 06:14 50.75322 7.55526 30593 ft 324 kts 159°
2026-04-19 06:14 50.73312 7.57087 30326 ft 321 kts 159°
2026-04-19 06:15 50.71304 7.58646 30021 ft 318 kts 159°
2026-04-19 06:15 50.69321 7.60182 29655 ft 317 kts 159°
2026-04-19 06:15 50.67373 7.61690 29328 ft 315 kts 159°
2026-04-19 06:15 50.65389 7.63225 28992 ft 313 kts 159°
2026-04-19 06:16 50.63463 7.64713 28659 ft 311 kts 160°
2026-04-19 06:16 50.61525 7.66210 28349 ft 309 kts 160°
2026-04-19 06:16 50.59599 7.67696 28040 ft 308 kts 160°
2026-04-19 06:16 50.57677 7.69177 27733 ft 306 kts 160°
2026-04-19 06:17 50.55768 7.70647 27435 ft 304 kts 160°
2026-04-19 06:17 50.53872 7.72107 27124 ft 302 kts 160°
2026-04-19 06:17 50.51990 7.73553 26851 ft 300 kts 160°
2026-04-19 06:17 50.50112 7.74996 26569 ft 298 kts 160°
2026-04-19 06:18 50.48276 7.76404 26277 ft 297 kts 160°
2026-04-19 06:18 50.46402 7.77839 25976 ft 296 kts 160°
2026-04-19 06:18 50.44547 7.79259 25665 ft 295 kts 160°
2026-04-19 06:18 50.42705 7.80669 25391 ft 294 kts 160°
2026-04-19 06:19 50.40892 7.82055 25118 ft 293 kts 161°
2026-04-19 06:19 50.39063 7.83453 24869 ft 291 kts 161°
2026-04-19 06:19 50.37240 7.84844 24609 ft 291 kts 161°
2026-04-19 06:19 50.35427 7.86226 24367 ft 290 kts 161°
2026-04-19 06:20 50.33615 7.87608 24121 ft 288 kts 161°
2026-04-19 06:20 50.31811 7.88982 23855 ft 288 kts 161°
2026-04-19 06:20 50.30012 7.90349 23554 ft 287 kts 161°
2026-04-19 06:20 50.28227 7.91705 23241 ft 286 kts 161°
2026-04-19 06:21 50.26443 7.93060 22918 ft 285 kts 161°
2026-04-19 06:21 50.24659 7.94413 22600 ft 284 kts 161°
2026-04-19 06:21 50.22896 7.95819 22238 ft 287 kts 153°
2026-04-19 06:21 50.21465 7.98080 21827 ft 304 kts 128°
2026-04-19 06:22 50.20673 8.01246 21235 ft 326 kts 104°
2026-04-19 06:22 50.20623 8.04863 20649 ft 340 kts 90°
2026-04-19 06:22 50.20817 8.08273 20102 ft 346 kts 91°
2026-04-19 06:22 50.20691 8.11966 19539 ft 345 kts 106°
2026-04-19 06:23 50.19969 8.15506 18974 ft 342 kts 120°
2026-04-19 06:23 50.18837 8.18757 18361 ft 337 kts 128°
2026-04-19 06:23 50.17513 8.21750 17732 ft 332 kts 132°
2026-04-19 06:23 50.16123 8.24607 17123 ft 329 kts 133°
2026-04-19 06:24 50.14711 8.27423 16502 ft 327 kts 134°
2026-04-19 06:24 50.13308 8.30214 15854 ft 326 kts 133°
2026-04-19 06:24 50.11928 8.32967 15240 ft 325 kts 133°
2026-04-19 06:24 50.10660 8.35892 14621 ft 329 kts 117°
2026-04-19 06:25 50.10109 8.39362 14014 ft 335 kts 93°
2026-04-19 06:25 50.10437 8.42917 13488 ft 330 kts 71°
2026-04-19 06:25 50.11306 8.46184 13007 ft 323 kts 64°
2026-04-19 06:25 50.12261 8.49326 12533 ft 317 kts 64°
2026-04-19 06:26 50.13149 8.52430 12062 ft 312 kts 66°
2026-04-19 06:26 50.13968 8.55548 11605 ft 307 kts 68°
2026-04-19 06:26 50.14730 8.58628 11142 ft 302 kts 68°
2026-04-19 06:26 50.15457 8.61654 10702 ft 297 kts 69°
2026-04-19 06:27 50.16172 8.64666 10265 ft 293 kts 69°
2026-04-19 06:27 50.16872 8.67623 9804 ft 289 kts 68°
2026-04-19 06:27 50.17625 8.70490 9308 ft 282 kts 55°
2026-04-19 06:27 50.18922 8.72665 8845 ft 268 kts 26°
2026-04-19 06:28 50.20602 8.73618 8374 ft 251 kts 357°
2026-04-19 06:28 50.22245 8.73218 7907 ft 233 kts 328°
2026-04-19 06:28 50.23439 8.71666 7461 ft 219 kts 301°
2026-04-19 06:28 50.24109 8.69570 7005 ft 215 kts 287°
2026-04-19 06:29 50.24418 8.67338 6571 ft 214 kts 275°
2026-04-19 06:29 50.24323 8.65007 6086 ft 216 kts 259°
2026-04-19 06:29 50.23807 8.62816 5626 ft 216 kts 252°
2026-04-19 06:29 50.23269 8.60622 5217 ft 213 kts 254°
2026-04-19 06:30 50.22773 8.58505 5094 ft 204 kts 255°
2026-04-19 06:30 50.22535 8.57482 5102 ft 205 kts 255°
2026-04-19 06:30 50.22306 8.56501 5103 ft 206 kts 255°
2026-04-19 06:30 50.21808 8.54382 5105 ft 208 kts 254°
2026-04-19 06:31 50.21312 8.52297 5111 ft 209 kts 254°
2026-04-19 06:31 50.20794 8.50140 5096 ft 209 kts 253°
2026-04-19 06:31 50.20287 8.48043 5088 ft 210 kts 253°
2026-04-19 06:31 50.19573 8.46049 5109 ft 213 kts 234°
2026-04-19 06:32 50.18422 8.44538 5107 ft 224 kts 212°
2026-04-19 06:32 50.16888 8.43833 5110 ft 232 kts 186°
2026-04-19 06:32 50.15263 8.44269 5125 ft 256 kts 156°
2026-04-19 06:32 50.13776 8.46041 5110 ft 281 kts 128°
2026-04-19 06:33 50.12907 8.48754 5093 ft 277 kts 100°
2026-04-19 06:33 50.12877 8.51612 4989 ft 257 kts 74°
2026-04-19 06:33 50.13392 8.54155 4834 ft 238 kts 64°
2026-04-19 06:33 50.14033 8.56501 4470 ft 233 kts 61°
2026-04-19 06:34 50.14672 8.58802 4170 ft 230 kts 62°
2026-04-19 06:34 50.15274 8.61093 4102 ft 229 kts 63°
2026-04-19 06:34 50.15854 8.63410 4105 ft 229 kts 64°
2026-04-19 06:34 50.16418 8.65741 4100 ft 229 kts 64°
2026-04-19 06:35 50.16979 8.68087 4108 ft 232 kts 64°
2026-04-19 06:35 50.17540 8.70441 4102 ft 232 kts 64°
2026-04-19 06:35 50.18090 8.72758 4100 ft 230 kts 64°
2026-04-19 06:35 50.18649 8.75116 4109 ft 232 kts 64°
2026-04-19 06:36 50.19209 8.77480 4103 ft 232 kts 64°
2026-04-19 06:36 50.19763 8.79824 4099 ft 231 kts 64°
2026-04-19 06:36 50.20320 8.82193 4105 ft 232 kts 64°
2026-04-19 06:36 50.20877 8.84566 4102 ft 232 kts 64°
2026-04-19 06:37 50.21421 8.86929 4097 ft 232 kts 70°
2026-04-19 06:37 50.21469 8.89450 4104 ft 231 kts 102°
2026-04-19 06:37 50.20705 8.91567 4058 ft 218 kts 137°
2026-04-19 06:37 50.19460 8.92655 3635 ft 202 kts 175°
2026-04-19 06:38 50.18096 8.92753 3541 ft 201 kts 182°
2026-04-19 06:38 50.16700 8.92935 3492 ft 202 kts 177°
2026-04-19 06:38 50.15904 8.93096 3499 ft 203 kts 176°
2026-04-19 06:38 50.14494 8.93327 3488 ft 201 kts 189°
2026-04-19 06:39 50.13257 8.92578 3499 ft 184 kts 225°
2026-04-19 06:39 50.12458 8.91170 3497 ft 167 kts 245°
2026-04-19 06:39 50.11932 8.89601 3493 ft 161 kts 253°
2026-04-19 06:39 50.11511 8.87980 3498 ft 161 kts 257°
2026-04-19 06:40 50.11121 8.86355 3496 ft 159 kts 256°
2026-04-19 06:40 50.10732 8.84734 3501 ft 160 kts 257°
2026-04-19 06:40 50.10480 8.83673 3491 ft 154 kts 257°
2026-04-19 06:40 50.09991 8.81629 3488 ft 152 kts 257°
2026-04-19 06:41 50.09625 8.80094 3295 ft 150 kts 257°
2026-04-19 06:41 50.09260 8.78563 3110 ft 152 kts 257°
2026-04-19 06:41 50.08895 8.77032 2904 ft 151 kts 257°
2026-04-19 06:41 50.08528 8.75493 2698 ft 153 kts 258°
2026-04-19 06:42 50.08283 8.74452 2564 ft 155 kts 258°
2026-04-19 06:42 50.07904 8.72895 2347 ft 152 kts 258°
2026-04-19 06:42 50.07537 8.71339 2135 ft 153 kts 257°
2026-04-19 06:42 50.07164 8.69793 1927 ft 151 kts 257°
2026-04-19 06:43 50.06805 8.68278 1735 ft 154 kts 257°
2026-04-19 06:43 50.06423 8.66692 1496 ft 151 kts 256°
2026-04-19 06:43 50.06063 8.65186 1297 ft 146 kts 257°
2026-04-19 06:43 50.05723 8.63746 1095 ft 138 kts 249°
2026-04-19 06:44 50.05392 8.62350 895 ft 137 kts 253°
2026-04-19 06:44 50.05026 8.60965 724 ft 141 kts 255°
2026-04-19 06:44 50.04710 8.59546 539 ft 139 kts 253°
2026-04-19 06:44 50.04381 8.58147 357 ft 134 kts 251°
2026-04-19 06:45 50.04120 8.57046 357 ft 74 kts 250°
2026-04-19 06:45 50.04030 8.56661 355 ft 3 kts 250°
2026-04-19 06:45 50.03989 8.56382 350 ft 39 kts 279°
2026-04-19 06:45 50.04029 8.56080 354 ft 1 kts 279°
2026-04-19 06:46 50.04029 8.56076 354 ft 0 kts 279°
2026-04-19 06:47 50.04034 8.56037 356 ft 8 kts 288°
2026-04-19 06:47 50.04091 8.55972 357 ft 15 kts 339°
2026-04-19 06:47 50.04218 8.55928 353 ft 19 kts 22°
2026-04-19 06:47 50.04273 8.56052 358 ft 13 kts 44°
2026-04-19 06:48 50.04349 8.56052 359 ft 16 kts 343°
2026-04-19 06:48 50.04443 8.56090 358 ft 17 kts 62°
2026-04-19 06:48 50.04501 8.56302 360 ft 26 kts 66°
2026-04-19 06:48 50.04574 8.56458 358 ft 18 kts 28°
2026-04-19 06:49 50.04604 8.56479 359 ft 3 kts
2026-04-19 06:49 50.04613 8.56478 359 ft 3 kts 344°
2026-04-19 06:49 50.04664 8.56440 358 ft 13 kts 334°
2026-04-19 06:49 50.04735 8.56399 359 ft 1 kts 340°
2026-04-19 06:50 50.04748 8.56392 360 ft 3 kts 340°
2026-04-19 06:50 50.04749 8.56391 359 ft 0 kts 340°